{"data":{"norad_id":63423,"epoch":"2026-05-25T01:26:10.892256Z","epoch_age_seconds":73422,"freshness":"FRESH","line1":"1 63423U 25065AA  26145.05984829  .00022783  00000+0  83469-3 0  9993","line2":"2 63423  43.0044  35.3861 0001363 274.3759  85.6937 15.27587871 64527","mean_motion":15.27587871,"eccentricity":0.0001363,"inclination_deg":43.0044,"raan_deg":35.3861,"arg_perigee_deg":274.3759,"mean_anomaly_deg":85.6937,"bstar":0.00083469,"rev_number":6452,"period_min":94.266262997842,"perigee_km":482.09035108277,"apogee_km":483.96070398778,"semimajor_km":6861.1625275353,"source":"CELESTRAK","updated_at":"2026-05-25T13:38:19.993627Z"}}